Location: Little Elm
(33.1626°N, 96.9375°W)
Time: 04:35:26
(UTC+00:00)

H-2A R/B - Pass Details

Date: 28 June 2022
Orbit: 491 x 536 km, 97.3° (Epoch: 01 April)

Event Time Altitude Azimuth Distance (km) Brightness Sun altitude
Rises 10:49:42 0° 18° (NNE) 2,597 7.2 -6.5°
Reaches altitude 10° 10:51:50 10° 24° (NNE) 1,715 6.3 -6.1°
Maximum altitude 10:55:25 48° 100° (E) 672 3.7 -5.5°
Drops below altitude 10° 10:59:01 10° 175° (S) 1,725 5.1 -4.9°
Sets 11:01:09 0° 181° (S) 2,613 6.0 -4.5°
